Terminal Aerodrome Forecast
Issued by NWS Twin Cities, MN

Home | Current Version | Previous Version | Graphics & Text | Print | Product List | Glossary On
Versions: 1 2 3 4 5 6 7 8 9 10 11 12 13 14 15 16 17 18 19 20
217
FTUS43 KMPX 271730
TAFSTC
TAF
KSTC 271730Z 2718/2818 32014G21KT P6SM VCSH SCT015 OVC025
      TEMPO 2718/2721 6SM -SHRA BKN020
     FM280200 34008KT P6SM BKN025
     FM280600 36008KT P6SM SCT025
     FM280900 34006KT P6SM SKC=

USA.gov is the U.S. government's official web portal to all federal, state and local government web resources and services.